BREEZE-M DEB, 32032

Orbit data source: Space-Track

BREEZE-M DEB, 32032 is space debris in HEO originally from a launch on Tue, 28 Feb 2006 UTC launched from the Tyuratam Missile And Space Complex (TTMTR). Debris objects in space refer to the collection of defunct objects orbiting the Earth. Examples of debris include non-operational satellites, rocket bodies, and fragments generated from explosions, collisions, or faulty payload assembly.

Loading next visibility...
Identifier
32032, 2006-006K
Orbit
HEO
Country
Flag of CISCIS
Related business
Manufacturer
Khrunichev
Mission
Spacecraft
Bus & Motor
Unknown
Mass
Unknown
Launch date (UTC)
2006-02-28 (20 years ago)
Launch vehicle
Unknown
Launch site
Tyuratam Missile And Space Complex (TTMTR)
Object type
Payload
Rocket body
Debris
Shape & HBR
Unknown shape, 0.2 m
Radar Cross Section
Medium (>0.1 m² and <1 m²)

Expand to show TLE details & history
Last TLE update: 2 days ago

TLE from 2 days ago
0 BREEZE-M DEB
1 32032U 06006K   26161.85601393  .00016082  00000-0  22611-1 0  9993
2 32032  51.5262 319.8064 4505696 144.4686 256.2749  6.18086949400394
Epoch: 2026-06-10T20:32Z
TLE epoch observation values (Epoch: 2026-06-10T20:32:39.603Z)
Latitude
-0.00003°
Longitude
112.42863°
Altitude
9,395.591 km
Speed
4.332 km/s
True Right ascension
21h 19m 12s
True Declination
0° 00' 00"
Sunlit
Object was in daylight at epoch
Visualization orbit readout
Latitude
Unknown
Longitude
Unknown
Altitude
Unknown
Speed
Unknown
Apparent Right ascension
Unknown
Apparent Declination
Unknown
Sunlit
N/A
Visualization observer readout
Local Sidereal Time
23:01:01
Azimuth
Unknown
Elevation
Unknown
Doppler factor
Unknown
Orbital elements
Apogee altitude
11,815.579 km
Perigee altitude
513.074 km
Semi-major axis
12,542.463 km
Eccentricity
0.45057
Inclination
51.5262°
RAAN
319.8064°
Arg. of periapsis
144.4686°
True anomaly
215.60084°
Mean anomaly
256.2749°
Eccentric anomaly
235.10165°
Mean motion
1.54514 °/min
Orbital period
232.99 mins
BSTAR
0.022611
Loading maneuver chart data...
Computing Atmospheric mass density...
Loading historical data...
Loading historical data...
Loading historical data...
Loading historical data...
Loading historical data...
Loading historical data...
Loading historical data...

Documentation

Showing up to 5 results
|